Location: Recife
(8.0585°S, 34.8848°W)
Time: 11:09:53
(UTC-03:00)

S-56A Canister/Altair - Pass Details

Date: 16 April 2026
Orbit: 633 x 2484 km, 38.9° (Epoch: 20 May)

Event Time Altitude Azimuth Distance (km) Brightness Sun altitude
Rises 12:32:42 0° 320° (NW) 5,905 12.4 64.1°
Reaches altitude 10° 12:36:59 10° 323° (NW) 4,713 12.1 63.4°
Maximum altitude 12:49:16 59° 39° (NE) 1,887 10.4 61.1°
Drops below altitude 10° 12:57:32 10° 117° (ESE) 3,254 10.5 59.4°
Sets 12:59:57 0° 121° (ESE) 4,010 10.9 59.0°
